Location: Hawks Ness
(60.2333°N, 1.1667°W)
Time: 03:33:59
(UTC+00:00)

Cosmos 2184 Rocket - Pass Details

Date: 22 October 2019
Orbit: 960 x 1001 km, 82.9° (Epoch: 19 November)

Event Time Altitude Azimuth Distance (km) Brightness Sun altitude
Rises 04:04:30 0° 183° (S) 3,663 6.8 -22.3°
Reaches altitude 10° 04:07:00 10° 182° (S) 2,725 6.1 -22.0°
Maximum altitude 04:13:13 75° 99° (E) 1,024 4.2 -21.3°
Drops below altitude 10° 04:19:34 10° 15° (NNE) 2,771 6.7 -20.5°
Sets 04:22:07 0° 14° (NNE) 3,728 7.4 -20.2°
